JTA741 ROIG-ROYN

Flight info

Callsign JTA741
Flight time 0h 19m
Altitude 12000
Route AYAKA3 AYAKA ABASA
Aircraft DH8D/M-SDE2E3FGRY/H

Departure

Time 2026-05-07 14:02
Airport New Ishigaki Airport (ROIG)

Arrival

Time 2026-05-07 14:22
Airport Yonaguni Airport (ROYN)
Time Latitude Longitude Altitude Speed Heading
2026-05-07 13:58 24.39074 124.24322 109 ft 2 kts 126°
2026-05-07 13:58 24.39082 124.24309 109 ft 2 kts 131°
2026-05-07 13:58 24.39096 124.24303 109 ft 2 kts 189°
2026-05-07 13:58 24.39105 124.24308 109 ft 1 kts 217°
2026-05-07 13:59 24.39105 124.24309 109 ft 0 kts 217°
2026-05-07 13:59 24.39105 124.24308 109 ft 0 kts 217°
2026-05-07 14:00 24.39061 124.24274 109 ft 15 kts 215°
2026-05-07 14:00 24.38969 124.24202 109 ft 16 kts 215°
2026-05-07 14:00 24.38877 124.24130 109 ft 16 kts 215°
2026-05-07 14:00 24.38850 124.24045 109 ft 10 kts 302°
2026-05-07 14:01 24.38903 124.23976 109 ft 13 kts 310°
2026-05-07 14:01 24.38959 124.23967 109 ft 1 kts 36°
2026-05-07 14:01 24.39036 124.24029 109 ft 38 kts 36°
2026-05-07 14:01 24.39485 124.24384 109 ft 113 kts 36°
2026-05-07 14:02 24.40266 124.25005 155 ft 152 kts 39°
2026-05-07 14:02 24.41143 124.25710 477 ft 162 kts 39°
2026-05-07 14:02 24.42070 124.26459 936 ft 169 kts 39°
2026-05-07 14:02 24.43025 124.27231 1455 ft 174 kts 39°
2026-05-07 14:03 24.44015 124.28025 1961 ft 178 kts 38°
2026-05-07 14:03 24.45040 124.28842 2455 ft 183 kts 38°
2026-05-07 14:03 24.46082 124.29671 2912 ft 188 kts 37°
2026-05-07 14:03 24.47157 124.30499 3390 ft 189 kts 31°
2026-05-07 14:04 24.48410 124.30878 3868 ft 189 kts
2026-05-07 14:04 24.49717 124.30937 4351 ft 189 kts
2026-05-07 14:04 24.51036 124.30992 4833 ft 189 kts
2026-05-07 14:04 24.52270 124.30659 5280 ft 182 kts 318°
2026-05-07 14:05 24.52916 124.29535 5760 ft 172 kts 288°
2026-05-07 14:05 24.53332 124.28307 6242 ft 169 kts 289°
2026-05-07 14:05 24.53740 124.27103 6722 ft 172 kts 288°
2026-05-07 14:05 24.54154 124.25854 7213 ft 178 kts 288°
2026-05-07 14:06 24.54579 124.24544 7619 ft 190 kts 288°
2026-05-07 14:06 24.54956 124.23101 8008 ft 200 kts 272°
2026-05-07 14:06 24.54768 124.21565 8400 ft 209 kts 255°
2026-05-07 14:06 24.54398 124.19984 8784 ft 220 kts 255°
2026-05-07 14:07 24.54007 124.18320 9161 ft 231 kts 255°
2026-05-07 14:07 24.53598 124.16563 9541 ft 241 kts 255°
2026-05-07 14:07 24.53178 124.14756 9912 ft 249 kts 256°
2026-05-07 14:07 24.52746 124.12883 10303 ft 257 kts 256°
2026-05-07 14:08 24.52309 124.10984 10813 ft 254 kts 256°
2026-05-07 14:08 24.51880 124.09113 11188 ft 257 kts 256°
2026-05-07 14:08 24.51444 124.07210 11596 ft 257 kts 256°
2026-05-07 14:08 24.51003 124.05280 11860 ft 264 kts 257°
2026-05-07 14:09 24.50547 124.03277 11944 ft 275 kts 257°
2026-05-07 14:09 24.50077 124.01218 11968 ft 284 kts 257°
2026-05-07 14:09 24.49586 123.99069 11972 ft 291 kts 257°
2026-05-07 14:09 24.49090 123.96896 11972 ft 298 kts 257°
2026-05-07 14:10 24.48580 123.94664 11968 ft 303 kts 257°
2026-05-07 14:10 24.48060 123.92387 11965 ft 307 kts 257°
2026-05-07 14:10 24.47537 123.90103 11962 ft 310 kts 257°
2026-05-07 14:10 24.47006 123.87783 11958 ft 312 kts 257°
2026-05-07 14:11 24.46478 123.85473 11955 ft 314 kts 257°
2026-05-07 14:11 24.45946 123.83151 11950 ft 316 kts 257°
2026-05-07 14:11 24.45407 123.80800 11948 ft 317 kts 257°
2026-05-07 14:11 24.44868 123.78444 11947 ft 317 kts 257°
2026-05-07 14:12 24.44325 123.76080 11945 ft 318 kts 257°
2026-05-07 14:12 24.43789 123.73740 11944 ft 318 kts 257°
2026-05-07 14:12 24.43242 123.71362 11944 ft 319 kts 257°
2026-05-07 14:12 24.42703 123.69019 11946 ft 319 kts 257°
2026-05-07 14:13 24.42157 123.66646 11942 ft 319 kts 257°
2026-05-07 14:13 24.41612 123.64280 11731 ft 320 kts 257°
2026-05-07 14:13 24.41072 123.61961 11362 ft 304 kts 256°
2026-05-07 14:13 24.40583 123.59769 10959 ft 290 kts 259°
2026-05-07 14:14 24.40552 123.57606 10590 ft 277 kts 275°
2026-05-07 14:14 24.40764 123.55539 10220 ft 272 kts 276°
2026-05-07 14:14 24.40983 123.53492 9849 ft 271 kts 276°
2026-05-07 14:14 24.41212 123.51393 9473 ft 277 kts 276°
2026-05-07 14:15 24.41438 123.49281 9089 ft 283 kts 276°
2026-05-07 14:15 24.41667 123.47124 8696 ft 287 kts 276°
2026-05-07 14:15 24.41900 123.44919 8304 ft 287 kts 276°
2026-05-07 14:15 24.42119 123.42792 7910 ft 276 kts 276°
2026-05-07 14:16 24.42328 123.40758 7538 ft 265 kts 276°
2026-05-07 14:16 24.42531 123.38778 7177 ft 255 kts 276°
2026-05-07 14:16 24.42727 123.36864 6833 ft 250 kts 276°
2026-05-07 14:16 24.42923 123.34976 6494 ft 248 kts 275°
2026-05-07 14:17 24.43117 123.33086 6150 ft 247 kts 275°
2026-05-07 14:17 24.43306 123.31241 5816 ft 246 kts 275°
2026-05-07 14:17 24.43498 123.29379 5478 ft 245 kts 275°
2026-05-07 14:17 24.43689 123.27501 5136 ft 244 kts 275°
2026-05-07 14:18 24.43876 123.25677 4805 ft 243 kts 275°
2026-05-07 14:18 24.44105 123.23825 4477 ft 243 kts 279°
2026-05-07 14:18 24.44432 123.22010 4155 ft 242 kts 281°
2026-05-07 14:18 24.44765 123.20216 3835 ft 241 kts 280°
2026-05-07 14:19 24.45095 123.18420 3516 ft 240 kts 279°
2026-05-07 14:19 24.45421 123.16624 3199 ft 240 kts 280°
2026-05-07 14:19 24.45745 123.14827 2880 ft 239 kts 280°
2026-05-07 14:19 24.46068 123.13031 2561 ft 238 kts 279°
2026-05-07 14:20 24.46383 123.11269 2251 ft 237 kts 280°
2026-05-07 14:20 24.46703 123.09469 1932 ft 237 kts 280°
2026-05-07 14:20 24.47015 123.07708 1619 ft 236 kts 280°
2026-05-07 14:20 24.47324 123.05959 1307 ft 232 kts 280°
2026-05-07 14:21 24.47615 123.04302 1003 ft 208 kts 280°
2026-05-07 14:21 24.47812 123.02817 732 ft 187 kts 268°
2026-05-07 14:21 24.47570 123.01497 540 ft 165 kts 253°
2026-05-07 14:21 24.47324 123.00466 144 ft 137 kts 256°
2026-05-07 14:22 24.47289 123.00312 52 ft 138 kts 255°
2026-05-07 14:22 24.47267 123.00218 132 ft 0 kts 255°
2026-05-07 14:22 24.47266 123.00216 183 ft 27 kts 255°
2026-05-07 14:22 24.47157 122.99731 297 ft 127 kts 255°
2026-05-07 14:23 24.46938 122.98783 154 ft 123 kts 257°
2026-05-07 14:23 24.46738 122.97915 304 ft 126 kts 256°
2026-05-07 14:23 24.46582 122.97237 464 ft 144 kts 255°
2026-05-07 14:23 24.46433 122.96562 619 ft 161 kts 254°
2026-05-07 14:24 24.46138 122.95435 1027 ft 172 kts 252°
2026-05-07 14:24 24.45949 122.94835 1451 ft 167 kts 250°
2026-05-07 14:24 24.45658 122.93589 2026 ft 176 kts 256°
2026-05-07 14:24 24.45372 122.92233 2557 ft 189 kts 255°
2026-05-07 14:25 24.45059 122.90762 2949 ft 211 kts 256°
2026-05-07 14:25 24.45005 122.89101 2939 ft 221 kts 282°
2026-05-07 14:25 24.45607 122.87539 2970 ft 225 kts 296°
2026-05-07 14:25 24.46308 122.85965 2914 ft 233 kts 295°
2026-05-07 14:26 24.47018 122.84363 2687 ft 229 kts 294°
2026-05-07 14:26 24.47324 122.82705 2406 ft 217 kts 264°
2026-05-07 14:26 24.46798 122.81225 2152 ft 203 kts 229°
2026-05-07 14:26 24.45685 122.80437 2032 ft 186 kts 192°
2026-05-07 14:27 24.44428 122.80571 1995 ft 187 kts 155°
2026-05-07 14:27 24.43434 122.81486 1976 ft 189 kts 122°
2026-05-07 14:27 24.43086 122.82866 1982 ft 191 kts 95°
2026-05-07 14:27 24.42991 122.84341 1981 ft 197 kts 96°
2026-05-07 14:28 24.42932 122.85850 1976 ft 196 kts 86°
2026-05-07 14:28 24.43203 122.87264 1828 ft 185 kts 63°
2026-05-07 14:28 24.43831 122.88445 1596 ft 166 kts 60°
2026-05-07 14:28 24.44132 122.89023 1508 ft 156 kts 63°
2026-05-07 14:29 24.44173 122.89106 1497 ft 155 kts 63°
2026-05-07 14:29 24.44708 122.90115 1499 ft 149 kts 60°
2026-05-07 14:29 24.45212 122.91042 1402 ft 148 kts 65°
2026-05-07 14:29 24.45479 122.92065 1099 ft 135 kts 82°
2026-05-07 14:30 24.45619 122.93041 905 ft 127 kts 81°
2026-05-07 14:30 24.45824 122.93986 696 ft 126 kts 79°
2026-05-07 14:30 24.46019 122.94922 516 ft 124 kts 78°
2026-05-07 14:30 24.46233 122.95851 320 ft 128 kts 79°
2026-05-07 14:31 24.46458 122.96797 143 ft 126 kts 76°
2026-05-07 14:31 24.46663 122.97667 65 ft 91 kts 75°